Stations météo

réclame
Mon MeteoGroup
Thomastown, Grande-Bretagne (3901): Température de l'air & dewpoint: 19.01.2020 03:00:00 - 25.01.2020 03:00:00 (GMT)Thomastown, Grande-Bretagne (3901): Température de l'air -20cm & Température de l'air -100cm: 19.01.2020 03:00:00 - 25.01.2020 03:00:00 (GMT)Thomastown, Grande-Bretagne (3901): Vitesse du vent: 19.01.2020 03:00:00 - 25.01.2020 03:00:00 (GMT)Thomastown, Grande-Bretagne (3901): Direction du vent: 19.01.2020 03:00:00 - 25.01.2020 03:00:00 (GMT)Thomastown, Grande-Bretagne (3901): reduced air pressure: 19.01.2020 03:00:00 - 25.01.2020 03:00:00 (GMT)Thomastown, Grande-Bretagne (3901): visibility: 19.01.2020 03:00:00 - 25.01.2020 03:00:00 (GMT)Thomastown, Grande-Bretagne (3901): Ensoleillement: 19.01.2020 03:00:00 - 25.01.2020 03:00:00 (GMT)Thomastown, Grande-Bretagne (3901): Quantités de précipitations: 19.01.2020 03:00:00 - 25.01.2020 03:00:00 (GMT)
Date & Time tt [°C] td [°C] tt -20cm [°C] tt -100cm [°C] ff [km/h] ff [knt] dd ppp [hPa] vv [km] sd [min] rr [mm]
25.01.2020 03:00:00 - - - - - - - - - - -
25.01.2020 02:00:00 - - - - - - - - - - -
25.01.2020 01:00:00 - - - - - - - - - - -
25.01.2020 00:00:00 - - - - - - - - - - -
24.01.2020 23:00:00 - - - - - - - - - - -
24.01.2020 22:00:00 - - - - - - - - - - -
24.01.2020 21:00:00 - - - - - - - - - - -
24.01.2020 20:00:00 - - - - - - - - - - -
24.01.2020 19:00:00 - - - - - - - - - - -
24.01.2020 18:00:00 - - - - - - - - - - -
24.01.2020 17:00:00 - - - - - - - - - - -
24.01.2020 16:00:00 - - - - - - - - - - -
24.01.2020 15:00:00 - - - - - - - - - - -
24.01.2020 14:00:00 7,2 6,5 - - 18 10 S 1019,7 50 0 0,0
24.01.2020 13:00:00 6,8 6,4 - - 11 6 S 1021,1 50 0 0,0
24.01.2020 12:00:00 6,8 6,5 - - 13 7 S 1021,6 50 0 0,0
24.01.2020 11:00:00 6,3 6,1 - - 13 7 SSW 1022,1 35 0 0,0
24.01.2020 10:00:00 6,2 6,0 - - 9 5 S 1022,1 30 0 0,0
24.01.2020 09:00:00 6,0 5,7 6,0 6,7 8 4 S 1022,0 30 0 0,0
24.01.2020 08:00:00 6,1 5,8 - - 11 6 SSE 1021,9 27 0 0,0
24.01.2020 07:00:00 6,6 5,8 - - 9 5 SSW 1022,2 45 0 0,0
24.01.2020 06:00:00 6,5 5,8 - - 9 5 S 1022,2 45 0 0,0
24.01.2020 05:00:00 6,6 5,8 - - 9 5 SW 1022,3 50 0 0,0
24.01.2020 04:00:00 6,7 5,7 - - 13 7 WSW 1022,6 50 0 0,0
24.01.2020 03:00:00 6,4 5,5 - - 8 4 SSW 1023,2 50 0 0,0
24.01.2020 02:00:00 6,6 5,7 - - 9 5 SSW 1024,1 50 0 0,0
24.01.2020 01:00:00 6,3 5,8 - - 9 5 SW 1024,8 35 0 0,0
24.01.2020 00:00:00 6,9 6,3 - - 4 2 SSW 1025,4 40 - 0,0
23.01.2020 23:00:00 7,1 6,5 - - 8 4 WSW 1026,0 10 0 0,0
23.01.2020 22:00:00 7,0 6,1 - - 9 5 WSW 1026,6 23 0 0,0
23.01.2020 21:00:00 6,9 5,9 - - 5 3 SW 1026,8 50 0 0,0
23.01.2020 20:00:00 7,0 5,8 - - 5 3 SSW 1026,7 45 0 0,0
23.01.2020 19:00:00 7,4 5,9 - - 11 6 WSW 1027,2 45 0 0,0
23.01.2020 18:00:00 7,6 6,0 - - 13 7 WSW 1027,5 50 0 0,0
23.01.2020 17:00:00 7,8 6,2 - - 9 5 WSW 1027,6 50 0 0,0
23.01.2020 16:00:00 7,9 6,2 - - 9 5 WSW 1028,0 50 0 0,0
23.01.2020 15:00:00 8,0 6,1 - - 8 4 SW 1028,6 50 18 0,0
23.01.2020 14:00:00 8,2 6,2 - - 11 6 WSW 1029,5 45 6 0,0
23.01.2020 13:00:00 7,5 6,7 - - 11 6 WSW 1030,7 50 0 0,0
23.01.2020 12:00:00 7,2 7,1 - - 8 4 NNW 1031,3 27 0 0,0
23.01.2020 11:00:00 5,7 5,7 - - 5 3 N 1031,8 17 0 0,0
23.01.2020 10:00:00 5,2 5,2 - - 9 5 SE 1032,3 4,1 0 0,0
23.01.2020 09:00:00 4,7 4,7 5,7 6,7 9 5 SE 1032,4 9 0 0,0
23.01.2020 08:00:00 5,0 5,0 - - 9 5 ESE 1032,7 2,8 0 0,0
23.01.2020 07:00:00 5,3 5,3 - - 9 5 ENE 1032,8 0,2 0 0,0
23.01.2020 06:00:00 5,6 5,6 - - 4 2 E 1032,8 0,2 0 0,0
23.01.2020 05:00:00 6,1 6,1 - - 4 2 SSW 1033,1 0,2 0 0,0
23.01.2020 04:00:00 6,3 6,3 - - 2 1 NNW 1034,1 0,3 0 0,0
23.01.2020 03:00:00 6,3 6,3 - - 5 3 NNW 1035,0 0,2 0 0,0
23.01.2020 02:00:00 6,8 6,8 - - 5 3 NW 1035,3 0,2 0 0,0
23.01.2020 01:00:00 7,6 7,6 - - 5 3 WSW 1035,4 0,1 0 0,0
23.01.2020 00:00:00 8,1 8,1 - - 4 2 W 1036,0 0,6 - 0,0
22.01.2020 23:00:00 8,4 8,4 - - 4 2 WNW 1036,2 0,5 0 0,0
22.01.2020 22:00:00 8,4 8,4 - - 4 2 WSW 1036,4 0,2 0 0,0
22.01.2020 21:00:00 8,4 8,4 - - 2 1 S 1036,4 1,0 0 0,0
22.01.2020 20:00:00 8,7 8,6 - - 2 1 W 1037,1 5 0 0,0
22.01.2020 19:00:00 8,9 8,8 - - 5 3 N 1037,4 6 0 0,0
22.01.2020 18:00:00 9,0 8,9 - - 5 3 NNW 1037,6 6 0 0,0
22.01.2020 17:00:00 9,4 9,1 - - 9 5 NNW 1037,4 9 0 0,0
22.01.2020 16:00:00 9,9 9,1 - - 5 3 NNW 1037,6 13 0 0,0
22.01.2020 15:00:00 10,7 9,5 - - 2 1 NW 1037,5 20 0 0,0
22.01.2020 14:00:00 10,6 9,1 - - 2 1 NNE 1038,0 20 0 0,0
22.01.2020 13:00:00 10,4 9,4 - - 5 3 N 1038,7 17 0 0,0
22.01.2020 12:00:00 9,9 9,3 - - 2 1 NNW 1039,3 13 0 0,0
22.01.2020 11:00:00 9,4 9,1 - - 5 3 NNW 1039,5 11 0 0,0
22.01.2020 10:00:00 8,8 8,7 - - 5 3 NNW 1039,6 16 0 0,0
22.01.2020 09:00:00 8,3 8,1 5,2 6,7 5 3 W 1039,5 16 0 0,0
22.01.2020 08:00:00 8,3 8,1 - - 4 2 W 1039,4 16 0 0,0
22.01.2020 07:00:00 8,7 8,4 - - 5 3 NW 1039,2 17 0 0,0
22.01.2020 06:00:00 8,7 8,5 - - 8 4 NW 1039,2 18 0 0,0
22.01.2020 05:00:00 8,8 8,2 - - 4 2 WNW 1039,4 17 0 0,0
22.01.2020 04:00:00 9,0 8,5 - - 5 3 NW 1039,4 18 0 0,0
22.01.2020 03:00:00 9,0 8,5 - - 5 3 WNW 1039,8 35 0 0,0
22.01.2020 02:00:00 8,4 7,9 - - 5 3 W 1040,1 45 0 0,0
22.01.2020 01:00:00 8,7 8,1 - - 5 3 WNW 1040,1 50 0 0,0
22.01.2020 00:00:00 9,0 8,2 - - 9 5 NW 1040,5 50 - 0,0
21.01.2020 23:00:00 9,2 8,2 - - 9 5 NW 1040,6 50 0 0,0
21.01.2020 22:00:00 9,0 8,3 - - 11 6 NW 1040,1 50 0 0,0
21.01.2020 21:00:00 9,1 8,8 - - 9 5 NW 1040,4 18 0 0,0
21.01.2020 20:00:00 9,2 8,6 - - 11 6 NW 1040,6 9 0 0,0
21.01.2020 19:00:00 9,3 8,3 - - 11 6 NW 1040,3 35 0 0,0
21.01.2020 18:00:00 9,6 8,3 - - 15 8 NW 1039,9 35 0 0,0
21.01.2020 17:00:00 9,4 8,6 - - 5 3 W 1039,8 35 0 0,0
21.01.2020 16:00:00 9,4 8,7 - - 8 4 W 1039,7 45 0 0,0
21.01.2020 15:00:00 9,2 8,5 - - 9 5 WNW 1040,1 40 0 0,0
21.01.2020 14:00:00 8,4 8,1 - - 5 3 E 1040,7 30 0 0,0
21.01.2020 13:00:00 8,0 7,8 - - 8 4 SSW 1041,1 30 0 0,0
21.01.2020 12:00:00 7,6 7,5 - - 9 5 SSW 1041,6 8 0 0,0
21.01.2020 11:00:00 7,2 6,9 - - 9 5 SSW 1041,8 4,2 0 0,0
21.01.2020 10:00:00 7,0 6,8 - - 9 5 S 1041,7 20 0 0,0
21.01.2020 09:00:00 6,9 6,6 4,5 6,7 9 5 SSE 1041,0 20 0 0,0
21.01.2020 08:00:00 6,5 6,1 - - 5 3 ENE 1040,9 13 0 0,0
21.01.2020 07:00:00 6,8 6,1 - - 9 5 SW 1040,8 16 0 0,0
21.01.2020 06:00:00 6,9 6,3 - - 5 3 NE 1040,8 16 0 0,0
21.01.2020 05:00:00 7,4 6,4 - - 9 5 SSW 1041,0 13 0 0,0
21.01.2020 04:00:00 7,2 6,0 - - 5 3 SW 1041,2 16 0 0,0
21.01.2020 03:00:00 7,6 5,6 - - 8 4 SW 1041,6 20 0 0,0
21.01.2020 02:00:00 7,3 5,2 - - 11 6 SW 1041,4 20 0 0,0
21.01.2020 01:00:00 7,6 4,9 - - 9 5 WSW 1042,1 22 0 0,0
21.01.2020 00:00:00 6,9 4,6 - - 5 3 SW 1042,6 26 - 0,2
20.01.2020 23:00:00 7,1 4,7 - - 8 4 SSW 1042,5 25 0 0,0
20.01.2020 22:00:00 7,3 4,5 - - 9 5 S 1042,9 22 0 0,0
20.01.2020 21:00:00 7,9 4,5 - - 8 4 SW 1043,2 21 0 0,0
20.01.2020 20:00:00 7,7 4,9 - - 11 6 SW 1043,4 22 0 0,0
20.01.2020 19:00:00 7,8 5,4 - - 11 6 WSW 1043,3 22 0 0,0
20.01.2020 18:00:00 6,5 5,1 - - 9 5 S 1043,4 22 0 0,0
20.01.2020 17:00:00 6,8 5,3 - - 9 5 SSW 1043,3 20 0 0,0
20.01.2020 16:00:00 7,0 5,2 - - 11 6 SW 1043,4 22 0 0,0
20.01.2020 15:00:00 6,7 5,0 - - 5 3 S 1043,6 21 0 0,0
20.01.2020 14:00:00 6,1 4,6 - - 9 5 SSW 1043,7 17 6 0,0
20.01.2020 13:00:00 6,1 4,4 - - 13 7 S 1044,0 15 60 0,0
20.01.2020 12:00:00 5,5 3,7 - - 11 6 SSE 1044,2 20 60 0,0
20.01.2020 11:00:00 4,6 3,1 - - 11 6 S 1044,5 19 36 0,0
20.01.2020 10:00:00 3,3 2,5 - - 11 6 SSE 1044,5 24 0 0,0
20.01.2020 09:00:00 3,0 2,3 4,2 6,9 15 8 S 1044,7 22 0 0,0
20.01.2020 08:00:00 2,6 1,8 - - 9 5 SSE 1044,5 20 0 0,0
20.01.2020 07:00:00 2,6 2,0 - - 13 7 S 1044,5 25 0 0,0
20.01.2020 06:00:00 2,3 1,6 - - 9 5 SSE 1044,4 22 0 0,0
20.01.2020 05:00:00 2,5 1,8 - - 15 8 SSE 1044,3 26 0 0,0
20.01.2020 04:00:00 2,2 1,6 - - 8 4 SE 1044,7 22 0 0,0
20.01.2020 03:00:00 2,9 2,0 - - 13 7 SSE 1044,5 25 0 0,0
20.01.2020 02:00:00 3,2 2,1 - - 11 6 S 1044,6 28 0 0,0
20.01.2020 01:00:00 2,4 1,6 - - 11 6 SSE 1044,7 22 0 0,0
20.01.2020 00:00:00 2,8 1,9 - - 16 9 S 1044,7 21 - 0,0
19.01.2020 23:00:00 3,3 2,1 - - 15 8 S 1044,8 26 0 0,0
19.01.2020 22:00:00 3,5 2,1 - - 15 8 S 1044,8 25 0 0,0
19.01.2020 21:00:00 4,0 2,4 - - 16 9 S 1044,7 30 0 0,0
19.01.2020 20:00:00 4,0 2,4 - - 16 9 S 1044,8 29 0 0,0
19.01.2020 19:00:00 4,0 2,2 - - 18 10 S 1044,7 30 0 0,0
19.01.2020 18:00:00 3,6 1,9 - - 13 7 S 1044,4 30 0 0,0
19.01.2020 17:00:00 4,2 2,0 - - 16 9 S 1044,1 30 0 0,0
19.01.2020 16:00:00 4,4 1,8 - - 16 9 S 1043,9 30 42 0,0
19.01.2020 15:00:00 4,4 1,5 - - 16 9 S 1043,5 35 60 0,0
19.01.2020 14:00:00 4,1 0,9 - - 13 7 SSE 1043,4 30 60 0,0
19.01.2020 13:00:00 2,9 0,5 - - 15 8 SSE 1043,7 19 60 0,0
19.01.2020 12:00:00 1,2 0,1 - - 16 9 SSE 1043,9 15 24 0,0
19.01.2020 11:00:00 0,0 -0,5 - - 13 7 SE 1043,8 12 0 0,0
19.01.2020 10:00:00 -0,3 -0,6 - - 15 8 SE 1043,7 12 0 0,0
19.01.2020 09:00:00 -1,2 -1,4 4,7 7,0 11 6 SE 1043,1 8 0 0,0
19.01.2020 08:00:00 -2,0 -2,3 - - 11 6 SE 1042,5 9 0 0,0
19.01.2020 07:00:00 -2,1 -2,3 - - 11 6 SSE 1042,1 8 0 0,0
19.01.2020 06:00:00 -2,0 -2,2 - - 5 3 SE 1041,8 10 0 0,0
19.01.2020 05:00:00 -1,8 -1,9 - - 11 6 SE 1041,2 10 0 0,0
19.01.2020 04:00:00 -2,3 -2,6 - - 9 5 SSE 1040,7 6 0 0,0
19.01.2020 03:00:00 -1,7 -1,9 - - 5 3 SSE 1040,4 9 0 0,0

tt = Température de l'air
td = dewpoint
tt -20cm = Température de l'air -20cm
tt -100cm = Température de l'air -100cm
ff = Vitesse du vent
dd = Direction du vent
ppp = reduced air pressure
vv = visibility
sd = Ensoleillement
rr = Quantités de précipitations

stations d'obs. à proximité